sat.trackr.live / text

‹ back to catalog

STARLINK-1063

NORAD 44768 · 2019-074BH

PAYLOAD ACTIVE UNKNOWN

§ Identity

Operator
Country
US
Launch date
2019-11-11
Launch site
AFETR
Launch vehicle
Mass (kg)
RCS (m²)

Purposes: comms

External: N2YO · Heavens-Above · Gunter

§ Orbital elements

Epoch: 2026-05-25T03:42:45.912384Z

Period
93.08 min
Inclination
53.1561°
Eccentricity
0.0001494
Mean motion
15.47023969 rev/d
Perigee alt
424.4 km
Apogee alt
426.5 km
Semi-major
6,803.6 km
B*
9.0711e-4
RAAN
219.7732°
Arg perigee
22.6733°
Mean anomaly
337.4341°
Rev number
36,008

§ Raw data

STARLINK-10631 44768U 19074BH  26145.15469806  .00046424  00000+0  90711-3 0  99972 44768  53.1561 219.7732 0001494  22.6733 337.4341 15.47023969360082

JSON: /api/v1/satellites/44768 · /tle

For live sub-satellite position, see the globe view (requires WebGL).

§ Visibility from observer

Set your observer location to see the next 7 days of passes ≥ 10°. The values pass through the URL so the page stays shareable.

No JS? Fill the form by hand. The geolocation button needs JavaScript.